Location: Burleson Alternative School
(32.5290°N, 97.3406°W)
Time: 10:10:59
(UTC+00:00)

Vanguard 2 Rocket - Pass Details

Date: 10 November 2025
Orbit: 553 x 3287 km, 32.9° (Epoch: 07 December)

Event Time Altitude Azimuth Distance (km) Brightness Sun altitude
Exits shadow 07:47:31 17° 143° (SE) 5,198 10.6 -63.8°
Drops below altitude 10° 07:50:36 10° 139° (SE) 5,915 11.0 -63.3°
Sets 07:56:01 0° 134° (SE) 7,138 11.6 -62.3°
